Location: Belloy
(55.7522°N, 118.2333°W)
Time: 20:42:18
(UTC+00:00)

Envisat - Pass Details

Date: 08 December 2021
Orbit: 764 x 766 km, 98.2° (Epoch: 19 January)

Event Time Altitude Azimuth Distance (km) Brightness Sun altitude
Rises 14:39:52 0° 11° (N) 3,249 6.1 -11.4°
Reaches altitude 10° 14:42:30 10° 359° (N) 2,318 5.2 -11.0°
Maximum altitude 14:46:38 26° 305° (NW) 1,493 3.9 -10.5°
Drops below altitude 10° 14:50:45 10° 250° (WSW) 2,306 5.1 -10.0°
Sets 14:53:22 0° 238° (WSW) 3,228 5.9 -9.6°
